Wind_Speed
15 14 14 14 14 14 13 12 12 11 11 11 10 10 9 9 9 9 8 8 8 8 7 7 6 6 5 5 4 4 4 4 4 4 4 5 5 6 6 6 7 7 7
16 15 15 15 15 15 14 14 13 12 12 11 11 11 10 10 9 9 9 8 8 8 7 7 6 5 5 5 4 4 3 3 3 3 3 4 4 4 5 6 6 6 6
18 17 17 17 16 16 16 15 14 13 13 12 11 11 11 11 10 10 9 9 9 8 7 7 6 5 5 5 4 4 3 3 2 2 3 3 3 3 4 4 5 5 6
20 19 18 18 18 18 17 17 16 15 14 13 13 12 12 11 11 10 10 9 9 9 8 7 6 5 5 4 4 4 3 2 2 1 2 2 2 2 2 3 4 4 5
21 21 20 20 19 19 19 18 17 16 15 15 14 13 13 12 11 11 11 10 10 9 9 8 7 6 5 5 4 3 3 2 1 1 1 1 1 1 2 2 3 4 5
23 23 22 21 21 21 20 19 18 18 17 16 15 14 14 13 12 11 11 11 11 10 10 9 8 7 6 5 5 4 3 3 2 1 1 0 1 1 2 2 3 4 4
25 25 24 23 22 22 21 20 20 19 18 17 17 16 15 14 14 13 12 12 12 11 11 10 9 9 8 7 6 5 4 3 3 2 2 2 2 2 2 3 3 4 4
27 27 26 25 24 24 23 22 21 20 19 19 18 17 17 16 15 14 13 13 12 12 12 11 10 10 10 9 8 7 6 5 4 4 3 3 3 3 4 4 4 4 5
29 29 28 27 27 26 25 24 23 22 21 20 19 18 18 17 16 15 14 14 13 13 13 13 12 11 11 10 10 9 8 7 6 6 5 5 5 5 5 5 6 6 6
31 31 30 29 28 28 27 26 25 24 23 22 21 20 19 18 17 16 16 15 15 14 14 14 13 13 12 12 11 10 10 9 8 8 7 6 6 6 6 7 7 7 7
33 33 32 31 30 29 29 28 27 26 25 23 22 21 20 20 19 18 17 17 16 16 15 15 14 14 13 13 13 12 11 11 10 9 9 8 8 8 8 8 8 8 8
35 34 34 33 32 31 31 30 29 28 27 25 24 23 23 22 21 20 19 18 18 17 16 16 16 15 14 14 14 13 13 12 12 11 11 10 10 9 9 9 9 9 9
38 37 36 35 34 33 33 32 31 30 29 27 26 25 25 24 23 22 21 20 19 19 18 17 16 16 16 15 15 14 14 14 13 12 12 12 11 11 11 10 10 11 11
40 39 38 37 36 36 35 34 33 32 31 29 28 28 27 26 24 24 23 22 21 20 20 19 18 17 17 17 16 16 15 15 14 14 14 13 13 13 13 12 12 12 12
43 42 41 40 38 37 37 36 35 34 33 31 30 29 29 28 26 25 24 23 23 22 21 20 20 19 19 18 17 17 17 16 15 14 14 15 15 14 14 14 13 14 14
45 44 43 43 41 40 39 38 37 36 35 33 32 31 30 29 28 27 26 25 24 23 23 22 21 21 20 19 18 18 18 17 16 16 16 16 16 16 16 15 15 15 15
48 47 46 45 44 42 41 40 39 38 37 36 34 33 32 31 30 29 27 27 26 25 24 23 23 22 22 22 21 20 20 19 18 17 17 17 17 18 17 17 16 17 17
50 49 48 47 46 45 43 43 41 40 39 38 36 35 34 33 31 30 29 28 27 26 25 24 24 24 24 23 22 22 22 21 20 19 19 19 18 18 18 18 18 18 18
51 51 50 49 48 47 45 45 44 42 41 39 38 37 36 34 33 32 31 29 28 27 27 26 25 24 25 25 24 24 23 23 22 21 21 21 20 20 19 18 18 19 19
53 52 51 51 50 49 48 46 46 44 43 42 40 39 38 36 35 34 33 32 30 29 28 27 27 26 25 25 25 24 24 24 23 22 21 21 21 21 21 20 20 20 20
55 53 52 52 51 50 49 48 47 46 45 44 43 41 40 38 37 36 35 34 32 32 31 29 29 28 27 26 26 25 25 25 24 23 23 22 22 22 22 22 21 21 21
56 55 54 53 52 51 51 50 49 48 47 46 44 43 42 40 39 38 38 36 34 33 33 31 30 30 29 28 28 27 26 26 26 25 25 24 24 24 24 23 22 22 22
56 55 55 54 53 53 52 51 51 50 49 47 46 45 44 43 40 40 39 38 36 35 35 34 32 32 31 30 29 28 27 26 26 26 26 26 25 25 24 24 24 24 24
56 56 56 55 54 54 53 52 52 51 49 48 47 46 45 44 43 41 40 39 38 37 36 35 35 33 32 31 30 29 29 29 28 27 27 27 26 26 26 26 26 25 25
56 56 56 56 55 54 54 53 52 52 51 50 49 48 47 46 45 44 42 41 39 38 37 36 36 34 34 33 32 31 31 30 30 28 28 28 27 27 27 27 27 27 26
56 56 56 57 56 56 55 55 54 53 53 52 51 49 48 47 46 45 44 43 42 39 37 36 37 36 35 35 34 34 33 32 32 31 30 29 29 29 29 28 28 28 27
Wind_Direction
212 212 211 210 206 205 204 203 202 199 197 195 190 186 184 183 181 177 174 171 170 166 163 161 158 153 146 139 132 123 111 100 89 84 82 76 75 72 65 59 57 53 51
215 214 212 212 209 207 206 206 205 202 201 199 196 192 190 188 186 183 181 179 176 172 169 167 162 160 158 151 144 136 127 112 95 83 79 77 75 72 65 58 53 48 45
218 217 214 214 212 211 210 208 208 206 204 202 200 198 195 193 191 190 190 187 185 180 177 174 168 165 164 162 158 155 144 129 107 88 78 76 75 72 65 56 49 42 37
220 220 218 216 215 214 213 211 211 210 209 207 205 202 200 198 197 197 196 195 193 189 187 185 181 178 176 174 173 173 169 159 139 111 90 81 76 66 47 37 29 25 24
221 221 220 218 217 217 216 215 214 213 213 212 210 208 206 204 203 205 204 202 200 199 200 197 195 194 190 188 186 184 184 188 173 146 114 90 57 34 13 8 8 8 9
224 222 222 220 219 218 218 218 217 217 217 216 216 215 212 209 210 211 211 209 207 206 207 208 208 210 206 201 200 200 201 208 208 206 219 279 317 345 347 344 350 351 353
226 225 224 223 222 220 220 219 219 220 220 220 219 219 218 217 215 215 216 216 215 214 213 215 217 218 218 216 216 219 221 223 228 237 252 265 275 295 314 328 336 338 337
227 227 226 225 224 222 221 221 221 221 222 223 223 222 221 221 220 220 221 222 222 220 220 222 223 223 223 226 229 230 232 236 241 248 257 267 276 285 295 305 316 325 327
229 228 227 227 226 225 223 223 222 223 223 224 225 225 223 223 222 223 224 226 226 225 225 226 226 228 229 231 234 238 241 243 246 251 257 269 279 286 291 297 301 306 313
230 229 228 228 227 226 226 225 224 224 224 225 225 226 226 225 225 226 226 227 228 229 229 231 231 232 234 236 238 242 245 247 249 255 260 267 277 282 284 290 293 298 305
231 230 229 228 228 227 227 227 226 225 226 226 226 226 227 227 227 229 229 230 230 231 231 233 232 234 238 241 243 244 246 248 250 255 260 266 274 278 281 286 290 294 299
231 231 230 229 229 229 229 229 228 228 228 228 228 228 228 229 229 230 232 233 234 233 233 235 236 236 240 245 247 248 247 248 252 256 260 266 271 274 277 281 286 291 295
231 231 230 230 230 230 230 230 230 230 229 229 230 230 231 231 231 232 233 235 236 237 237 236 237 239 241 244 247 249 250 252 253 256 261 265 269 272 275 277 281 286 290
232 231 231 230 230 230 230 230 230 230 230 230 231 232 232 233 233 233 234 235 237 238 239 239 239 240 243 247 247 248 250 252 255 258 261 265 268 271 274 275 277 281 286
232 231 231 231 230 231 231 230 229 230 230 230 231 232 233 234 234 233 235 238 238 239 241 241 241 243 245 248 249 249 249 252 255 259 263 265 267 271 274 275 277 280 284
233 233 232 231 231 230 230 231 230 230 231 231 232 232 233 235 235 235 235 238 239 240 241 243 244 244 246 248 251 252 251 253 256 260 263 266 268 270 273 276 278 280 282
233 233 232 232 231 230 230 230 230 231 231 231 232 232 233 235 236 235 236 238 239 240 241 244 244 246 248 249 251 253 254 256 259 262 265 268 270 271 271 274 277 278 280
233 232 232 232 231 230 230 231 230 230 231 232 233 233 233 234 236 237 237 238 239 239 241 244 246 249 250 249 251 253 254 257 260 262 265 269 272 274 274 275 276 278 280
232 232 232 232 232 231 230 230 230 231 232 231 233 233 233 235 236 237 237 238 238 240 243 245 247 250 251 251 252 254 256 258 260 263 266 269 271 273 274 275 276 278 280
231 231 231 232 232 231 231 231 230 231 232 232 233 233 233 235 236 238 239 239 240 240 242 243 246 250 251 252 254 255 257 259 260 263 266 268 270 271 272 275 276 278 280
231 231 231 231 232 232 232 231 231 231 232 233 234 234 234 235 236 237 239 239 241 241 243 244 246 248 250 253 255 255 257 259 261 262 264 267 268 269 272 275 277 279 280
231 230 230 231 231 232 232 232 232 232 233 233 234 235 235 235 236 238 238 239 241 243 244 245 246 248 249 252 254 256 257 258 261 263 264 266 268 270 272 274 277 278 280
231 231 230 231 231 231 232 232 232 232 233 233 234 235 236 236 237 237 238 238 240 243 244 245 246 247 250 252 253 255 256 258 260 263 264 266 268 270 272 273 274 277 279
230 230 230 230 231 231 231 232 232 232 232 233 234 235 236 236 237 238 237 239 241 242 243 245 247 247 250 252 254 255 256 259 262 263 264 265 266 268 271 273 275 276 278
230 230 230 230 231 231 231 231 232 232 232 233 234 235 236 237 238 239 238 239 240 241 242 244 246 248 250 252 254 255 256 259 260 263 264 264 266 268 270 273 274 276 277
230 230 230 230 230 231 231 231 232 232 232 233 234 235 236 237 238 239 240 241 241 241 242 244 246 247 249 252 253 255 257 259 260 262 264 264 265 267 269 271 272 274 276
Height
5845 5846 5848 5849 5851 5853 5854 5856 5857 5858 5860 5861 5862 5863 5864 5866 5867 5868 5869 5870 5870 5871 5872 5873 5874 5875 5875 5876 5876 5877 5877 5878 5878 5878 5878 5879 5879 5879 5879 5879 5879 5879 5878
5843 5845 5846 5848 5850 5852 5853 5855 5856 5858 5859 5860 5862 5863 5864 5865 5867 5868 5869 5870 5871 5872 5872 5873 5874 5875 5876 5876 5877 5877 5878 5878 5879 5879 5879 5879 5880 5880 5880 5880 5880 5880 5879
5841 5843 5845 5846 5848 5850 5852 5853 5855 5857 5858 5859 5861 5862 5863 5865 5866 5867 5868 5870 5871 5872 5873 5873 5874 5875 5876 5876 5877 5878 5878 5879 5879 5879 5880 5880 5880 5880 5880 5880 5880 5880 5880
5838 5841 5843 5844 5846 5848 5850 5852 5854 5855 5857 5858 5860 5861 5863 5864 5865 5867 5868 5869 5870 5871 5872 5873 5874 5875 5876 5876 5877 5878 5878 5879 5879 5880 5880 5880 5880 5881 5881 5881 5881 5881 5880
5836 5838 5840 5842 5844 5846 5848 5850 5852 5853 5855 5857 5858 5860 5861 5863 5864 5866 5867 5868 5870 5871 5872 5873 5874 5875 5876 5876 5877 5878 5878 5879 5879 5880 5880 5881 5881 5881 5881 5881 5881 5881 5880
5833 5835 5837 5839 5841 5843 5845 5848 5850 5851 5853 5855 5857 5859 5860 5862 5863 5864 5866 5867 5869 5870 5871 5872 5873 5874 5875 5876 5877 5877 5878 5879 5879 5880 5880 5881 5881 5881 5881 5881 5881 5881 5880
5829 5831 5834 5836 5838 5840 5843 5845 5847 5849 5851 5853 5855 5857 5858 5860 5862 5863 5865 5866 5868 5869 5870 5871 5872 5873 5874 5875 5876 5877 5878 5878 5879 5880 5880 5880 5880 5881 5881 5881 5881 5880 5880
5825 5827 5830 5832 5835 5837 5840 5842 5844 5846 5848 5851 5853 5854 5856 5858 5860 5861 5863 5865 5866 5868 5869 5870 5871 5872 5873 5874 5876 5876 5877 5878 5878 5879 5879 5880 5880 5880 5880 5880 5880 5880 5880
5820 5823 5825 5828 5831 5834 5836 5839 5841 5843 5846 5848 5850 5852 5854 5856 5858 5859 5861 5863 5864 5866 5867 5869 5870 5871 5872 5873 5874 5875 5876 5877 5878 5878 5879 5879 5879 5879 5879 5880 5879 5879 5879
5815 5818 5821 5823 5826 5829 5832 5835 5838 5840 5843 5845 5847 5850 5852 5853 5855 5857 5859 5861 5862 5864 5865 5867 5868 5869 5871 5872 5873 5874 5875 5876 5876 5877 5877 5878 5878 5878 5878 5878 5878 5878 5878
5809 5812 5816 5818 5821 5825 5828 5831 5834 5836 5839 5842 5844 5846 5849 5851 5853 5855 5856 5858 5860 5862 5863 5865 5866 5868 5869 5870 5871 5872 5873 5874 5875 5876 5876 5876 5877 5877 5877 5877 5877 5877 5877
5804 5807 5810 5813 5816 5820 5823 5826 5829 5832 5835 5838 5840 5843 5845 5847 5850 5852 5854 5856 5857 5859 5861 5862 5864 5865 5867 5868 5869 5870 5871 5872 5873 5874 5874 5874 5875 5875 5875 5875 5875 5875 5875
5796 5800 5803 5807 5810 5814 5817 5821 5824 5827 5830 5833 5836 5839 5841 5844 5846 5848 5850 5852 5854 5856 5858 5860 5861 5863 5864 5866 5867 5868 5869 5870 5870 5871 5872 5872 5873 5873 5873 5873 5873 5873 5873
5789 5792 5796 5800 5804 5807 5811 5815 5818 5822 5825 5828 5831 5834 5837 5840 5842 5845 5847 5849 5851 5853 5855 5857 5858 5860 5861 5863 5864 5865 5866 5867 5868 5869 5869 5870 5870 5871 5871 5871 5871 5871 5871
5780 5784 5789 5792 5796 5800 5804 5808 5812 5816 5819 5823 5826 5829 5832 5835 5838 5840 5843 5845 5847 5849 5851 5853 5855 5857 5858 5860 5861 5862 5863 5864 5865 5866 5867 5867 5868 5868 5868 5868 5868 5868 5868
5771 5776 5780 5784 5788 5793 5797 5801 5805 5809 5813 5817 5820 5824 5827 5830 5833 5836 5839 5841 5843 5845 5847 5849 5851 5853 5855 5856 5858 5859 5860 5861 5862 5863 5864 5864 5865 5865 5865 5865 5865 5865 5865
5762 5766 5771 5775 5780 5784 5789 5794 5798 5802 5806 5810 5814 5818 5821 5825 5828 5831 5834 5836 5839 5841 5843 5845 5847 5849 5851 5852 5854 5855 5856 5858 5859 5860 5860 5861 5861 5861 5861 5861 5862 5862 5861
5751 5756 5761 5766 5771 5776 5780 5785 5790 5795 5799 5803 5807 5811 5815 5818 5822 5825 5828 5831 5834 5836 5839 5841 5843 5845 5846 5848 5850 5851 5852 5854 5855 5856 5857 5857 5857 5858 5858 5858 5858 5858 5858
5740 5745 5751 5756 5762 5767 5772 5777 5782 5786 5791 5796 5800 5804 5808 5812 5816 5819 5823 5826 5829 5831 5834 5836 5838 5840 5842 5844 5845 5847 5848 5849 5850 5851 5852 5853 5854 5854 5854 5854 5854 5854 5854
5729 5735 5740 5746 5752 5757 5763 5768 5773 5778 5783 5788 5792 5797 5801 5805 5809 5813 5816 5820 5823 5826 5828 5831 5833 5835 5837 5839 5840 5842 5843 5844 5846 5847 5848 5848 5849 5850 5850 5850 5850 5850 5850
5717 5723 5729 5736 5742 5747 5753 5758 5764 5769 5774 5779 5784 5789 5793 5798 5802 5806 5810 5813 5816 5820 5822 5825 5827 5829 5831 5833 5835 5837 5838 5840 5841 5842 5843 5843 5844 5845 5845 5846 5846 5846 5845
5706 5712 5718 5725 5731 5737 5743 5749 5754 5760 5765 5770 5776 5781 5785 5790 5794 5798 5802 5806 5809 5813 5816 5819 5821 5824 5825 5828 5830 5831 5833 5835 5835 5837 5838 5838 5839 5840 5840 5841 5841 5841 5841
5694 5701 5707 5714 5720 5726 5732 5738 5744 5750 5755 5761 5766 5772 5776 5781 5786 5790 5794 5798 5802 5806 5809 5812 5815 5817 5819 5821 5823 5826 5827 5829 5830 5831 5832 5833 5833 5834 5835 5835 5836 5836 5836
5682 5689 5696 5702 5709 5715 5721 5728 5734 5740 5746 5752 5758 5762 5767 5772 5777 5781 5785 5790 5794 5798 5802 5804 5807 5810 5812 5815 5817 5819 5821 5823 5824 5825 5826 5827 5827 5828 5829 5829 5830 5830 5830
5670 5677 5684 5691 5698 5704 5711 5717 5723 5730 5736 5742 5748 5753 5758 5763 5768 5773 5777 5782 5786 5790 5794 5797 5800 5803 5805 5807 5810 5812 5814 5815 5817 5819 5820 5821 5821 5822 5823 5823 5823 5824 5824
5658 5665 5672 5679 5686 5693 5699 5706 5713 5719 5726 5732 5738 5743 5749 5754 5759 5764 5768 5773 5777 5782 5785 5789 5792 5795 5798 5800 5802 5804 5806 5808 5810 5811 5813 5814 5814 5815 5816 5817 5817 5817 5817